���t,����z,�����Y���z
20210611,9956.00,499
20210614,10056.00,504
20210615,10127.00,507
20210616,10137.00,508
20210617,9995.00,501
20210618,10003.00,501
20210621,9819.00,492
20210622,10104.00,506
20210623,10117.00,507
20210624,10115.00,507
20210625,10222.00,512
20210628,10260.00,514
20210629,10279.00,515
20210630,10316.00,517
20210701,10236.00,513
20210702,10319.00,517
20210705,10358.00,519
20210706,10368.00,519
20210707,10390.00,521
20210708,10303.00,516
20210709,10241.00,513
20210712,10483.00,525
20210713,10500.00,526
20210714,10494.00,526
20210715,10322.00,517
20210716,10381.00,520
20210719,10260.00,514
20210720,10206.00,511
20210721,10358.00,519
20210726,10408.00,521
20210727,10406.00,521
20210728,10155.00,509
20210729,10135.00,508
20210730,9870.00,494
20210802,9961.00,499
20210803,9911.00,497
20210804,9843.00,493
20210805,9863.00,494
20210806,9928.00,497
20210810,10058.00,504
20210811,10074.00,505
20210812,9990.00,501
20210813,10040.00,503
20210816,9913.00,497
20210817,9707.00,486
20210818,9821.00,492
20210819,9758.00,489
20210820,9730.00,487
20210823,9915.00,497
20210824,10043.00,503
20210825,10068.00,504
20210826,10041.00,503
20210827,9994.00,501
20210830,10138.00,508
20210831,10292.00,516
20210901,10344.00,518
20210902,10421.00,522
20210903,10553.00,529
20210906,10675.00,535
20210907,10720.00,537
20210908,10822.00,542
20210909,10801.00,541
20210910,11076.00,555
20210913,11121.00,557
20210914,11221.00,562
20210915,11142.00,558
20210916,11076.00,555
20210917,11232.00,563
20210921,10991.00,551
20210922,10884.00,545
20210924,11138.00,558
20210927,11047.00,553
20210928,10899.00,546
20210929,10728.00,537
20210930,10807.00,541
20211001,10612.00,532
20211004,10431.00,523
20211005,10205.00,511
20211006,10226.00,512
20211007,10254.00,514
20211008,10407.00,521
20211011,10570.00,530
20211012,10456.00,524
20211013,10388.00,520
20211014,10517.00,527
20211015,10712.00,537
20211018,10627.00,532
20211019,10792.00,541
20211020,10758.00,539
20211021,10592.00,531
20211022,10597.00,531
20211025,10581.00,530
20211026,10637.00,533
20211027,10584.00,530
20211028,10642.00,533
20211029,10669.00,535
20211101,10932.00,548
20211102,10855.00,544
20211104,10978.00,550
20211105,11001.00,551
20211108,10877.00,545
20211109,10807.00,541
20211110,10832.00,543
20211111,10770.00,540
20211112,10872.00,545
20211115,10905.00,546
20211116,10917.00,547
20211117,10776.00,540
20211118,10786.00,540
20211119,10823.00,542
20211122,10791.00,541
20211124,10545.00,528
20211125,10483.00,525
20211126,10308.00,516
20211129,10119.00,507
20211130,10061.00,504
20211201,10072.00,505
20211202,9924.00,497
20211203,10131.00,508
20211206,10010.00,501
20211207,10241.00,513
20211208,10268.00,514
20211209,10156.00,509
20211210,10037.00,503
20211213,9991.00,501
20211214,9875.00,495
20211215,9909.00,496
20211216,9962.00,499
20211217,9770.00,489
20211220,9601.00,481
20211221,9699.00,486
20211222,9742.00,488
20211223,9734.00,488
20211224,9705.00,486
20211227,9595.00,481
20211228,9770.00,489
20211229,9836.00,493
20211230,9812.00,492
20220104,9844.00,493
20220105,9643.00,483
20220106,9374.00,470
20220107,9370.00,469
20220111,9250.00,463
20220112,9433.00,473
20220113,9284.00,465
20220114,9200.00,461
20220117,9125.00,457
20220118,9119.00,457
20220119,8779.00,440
20220120,8901.00,446
20220121,8850.00,443
20220124,8812.00,441
20220125,8519.00,427
20220126,8424.00,422
20220127,8061.00,404
20220128,8225.00,412
20220131,8434.00,423
20220201,8457.00,424
20220202,8677.00,435
20220203,8465.00,424
20220204,8540.00,428
20220207,8455.00,424
20220208,8420.00,422
20220209,8518.00,427
20220210,8650.00,433
20220214,8461.00,424
20220215,8491.00,425
20220216,8574.00,430
20220217,8498.00,426
20220218,8463.00,424
20220221,8399.00,421
20220222,8324.00,417
20220224,8224.00,412
20220225,8371.00,419
20220228,8462.00,424
20220301,8605.00,431
20220302,8470.00,424
20220303,8519.00,427
20220304,8317.00,417
20220307,8070.00,404
20220308,7936.00,398
20220309,7894.00,396
20220310,8146.00,408
20220311,7939.00,398
20220314,7880.00,395
20220315,7927.00,397
20220316,7963.00,399
20220317,8208.00,411
20220318,8297.00,416
20220322,8247.00,413
20220323,8511.00,426
20220324,8559.00,429
20220325,8550.00,428
20220328,8410.00,421
20220329,8586.00,430
20220330,8688.00,435
20220331,8617.00,432
20220401,8633.00,433
20220404,8832.00,443
20220405,8972.00,450
20220406,8838.00,443
20220407,8629.00,432
20220408,8707.00,436
20220411,8530.00,427
20220412,8372.00,419
20220413,8595.00,431
20220414,8580.00,430
20220415,8461.00,424
20220418,8299.00,416
20220419,8315.00,417
20220420,8358.00,419
20220421,8477.00,425
20220422,8347.00,418
20220425,8268.00,414
20220426,8299.00,416
20220427,8211.00,411
20220428,8447.00,423
20220502,8356.00,419
20220506,8309.00,416
20220509,8150.00,408
20220510,8137.00,408
20220511,8144.00,408
20220512,7837.00,393
20220513,7831.00,392
20220516,7800.00,391
20220517,7746.00,388
20220518,7795.00,391
20220519,7717.00,387
20220520,7803.00,391
20220523,7953.00,398
20220524,7787.00,390
20220525,7725.00,387
20220526,7744.00,388
20220527,7772.00,389
20220530,7980.00,400
20220531,7895.00,396
20220601,7974.00,399
20220602,7873.00,394
20220603,7960.00,399
20220606,8002.00,401
20220607,7960.00,399
20220608,8095.00,406
20220609,8129.00,407
20220610,8015.00,402
20220613,7774.00,389
20220614,7664.00,384
20220615,7547.00,378
20220616,7510.00,376
20220617,7421.00,372
20220620,7320.00,367
20220621,7468.00,374
20220622,7467.00,374
20220623,7486.00,375
20220624,7727.00,387
20220627,7831.00,392
20220628,7896.00,396
20220629,7910.00,396
20220630,7855.00,394
20220701,7745.00,388
20220704,7870.00,394
20220705,7964.00,399
20220706,8004.00,401
20220707,8095.00,406
20220708,8115.00,407
20220711,8170.00,409
20220712,7980.00,400
20220713,8013.00,401
20220714,8035.00,403
20220715,8084.00,405
20220719,8068.00,404
20220720,8247.00,413
20220721,8329.00,417
20220722,8368.00,419
20220725,8308.00,416
20220726,8287.00,415
20220727,8310.00,416
20220728,8417.00,422
20220729,8450.00,423
20220801,8514.00,427
20220802,8368.00,419
20220803,8461.00,424
20220804,8516.00,427
20220805,8567.00,429
20220808,8519.00,427
20220809,8532.00,427
20220810,8426.00,422
20220812,8799.00,441
20220815,8801.00,441
20220816,8893.00,446
20220817,8942.00,448
20220818,8836.00,443
20220819,8799.00,441
20220822,8738.00,438
20220823,8633.00,432
20220824,8650.00,433
20220825,8732.00,437
20220826,8738.00,438
20220829,8514.00,427
20220830,8639.00,433
20220831,8642.00,433
20220901,8471.00,424
20220902,8414.00,422
20220905,8449.00,423
20220906,8442.00,423
20220907,8363.00,419
20220908,8511.00,426
20220909,8564.00,429
20220912,8651.00,433
20220913,8724.00,437
20220914,8531.00,427
20220915,8549.00,428
20220916,8477.00,425
20220920,8487.00,425
20220921,8328.00,417
20220922,8298.00,416
20220926,8092.00,405
20220927,8155.00,409
20220928,8117.00,407
20220929,8255.00,414
20220930,8137.00,408
20221003,8173.00,409
20221004,8462.00,424
20221005,8469.00,424
20221006,8494.00,426
20221007,8389.00,420
20221011,8236.00,413
20221012,8227.00,412
20221013,8083.00,405
20221014,8309.00,416
20221017,8144.00,408
20221018,8276.00,415
20221019,8292.00,415
20221020,8224.00,412
20221021,8223.00,412
20221024,8218.00,412
20221025,8291.00,415
20221026,8395.00,421
20221027,8363.00,419
20221028,8373.00,419
20221031,8403.00,421
20221101,8377.00,420
20221102,8291.00,415
20221104,8028.00,402
20221107,8158.00,409
20221108,8249.00,413
20221109,8279.00,415
20221110,8229.00,412
20221111,8465.00,424
20221114,8431.00,422
20221115,8440.00,423
20221116,8410.00,421
20221117,8447.00,423
20221118,8377.00,420
20221121,8360.00,419
20221122,8426.00,422
20221124,8584.00,430
20221125,8555.00,429
20221128,8492.00,425
20221129,8396.00,421
20221130,8321.00,417
20221201,8337.00,418
20221202,8195.00,411
20221205,8132.00,407
20221206,8049.00,403
20221207,8074.00,405
20221208,8055.00,404
20221209,8169.00,409
20221212,8131.00,407
20221213,8183.00,410
20221214,8220.00,412
20221215,8226.00,412
20221216,8085.00,405
20221219,7985.00,400
20221220,7780.00,390
20221221,7713.00,386
20221222,7758.00,389
20221223,7644.00,383
20221226,7651.00,383
20221227,7745.00,388
20221228,7732.00,387
20221229,7772.00,389
20221230,7772.00,389
20230104,7574.00,379
20230105,7614.00,381
20230106,7658.00,384
20230110,7606.00,381
20230111,7723.00,387
20230112,7731.00,387
20230113,7650.00,383
20230116,7643.00,383
20230117,7648.00,383
20230118,7780.00,390
20230119,7770.00,389
20230120,7785.00,390
20230123,7929.00,397
20230124,8008.00,401
20230125,8029.00,402
20230126,8025.00,402
20230127,8009.00,401
20230130,7931.00,397
20230131,7930.00,397
20230201,7884.00,395
20230202,7902.00,396
20230203,7852.00,393
20230206,7822.00,392
20230207,7813.00,391
20230208,7809.00,391
20230209,7813.00,391
20230210,7845.00,393
20230213,7742.00,388
20230214,7756.00,389
20230215,7660.00,384
20230216,7736.00,388
20230217,7606.00,381
20230220,7682.00,385
20230221,7643.00,383
20230222,7529.00,377
20230224,7558.00,379
20230227,7533.00,377
20230228,7600.00,381
20230301,7547.00,378
20230302,7528.00,377
20230303,7586.00,380
20230306,7620.00,382
20230307,7681.00,385
20230308,7661.00,384
20230309,7719.00,387
20230310,7575.00,379
20230313,7487.00,375
20230314,7316.00,367
20230315,7335.00,368
20230316,7313.00,366
20230317,7476.00,375
20230320,7333.00,367
20230322,7421.00,372
20230323,7426.00,372
20230324,7380.00,370
20230327,7440.00,373
20230328,7419.00,372
20230329,7542.00,378
20230330,7555.00,378
20230331,7558.00,379
20230403,7652.00,383
20230404,7654.00,383
20230405,7483.00,375
20230406,7404.00,371
20230407,7421.00,372
20230410,7438.00,373
20230411,7468.00,374
20230412,7529.00,377
20230413,7552.00,378
20230414,7591.00,380
20230417,7543.00,378
20230418,7576.00,380
20230419,7536.00,378
20230420,7547.00,378
20230421,7546.00,378
20230424,7594.00,380
20230425,7595.00,380
20230426,7499.00,376
20230427,7502.00,376
20230428,7612.00,381
20230501,7676.00,385
20230502,7636.00,383
20230508,7664.00,384
20230509,7740.00,388
20230510,7662.00,384
20230511,7677.00,385
20230512,7714.00,387
20230515,7797.00,392
20230516,7854.00,395
20230517,7788.00,392
20230518,7802.00,392
20230519,7832.00,394
20230522,7833.00,395
20230523,7746.00,391
20230524,7690.00,389
20230525,7653.00,387
20230526,7560.00,383
20230529,7601.00,385
20230530,7596.00,385
20230531,7473.00,379
20230601,7473.00,380
20230602,7617.00,388
20230605,7719.00,395
20230606,7722.00,395
20230607,7667.00,396
20230608,7602.00,392
20230609,7680.00,396
20230612,7759.00,401
20230613,7786.00,403
20230614,7825.00,405
20230615,7822.00,405
20230616,7888.00,408
20230619,7898.00,409
20230620,7908.00,417
20230621,7934.00,419
20230622,7918.00,420
20230623,7814.00,416
20230626,7747.00,413
20230627,7724.00,413
20230628,7857.00,420
20230629,7864.00,424
20230630,7842.00,423
20230703,7892.00,426
20230704,7828.00,422
20230705,7784.00,422
20230706,7709.00,419
20230707,7668.00,418
20230710,7679.00,420
20230711,7668.00,419
20230712,7593.00,417
20230713,7658.00,421
20230714,7657.00,423
20230718,7650.00,423
20230719,7737.00,435
20230720,7652.00,432
20230721,7673.00,434
20230724,7712.00,437
20230725,7722.00,438
20230726,7740.00,440
20230727,7757.00,441
20230728,7736.00,442
20230731,7830.00,448
20230801,7877.00,451
20230802,7766.00,444
20230803,7590.00,439
20230804,7606.00,440
20230807,7666.00,444
20230808,7674.00,445
20230809,7756.00,450
20230810,7797.00,453
20230814,7693.00,447
20230815,7672.00,446
20230816,7587.00,442
20230817,7528.00,439
20230818,7463.00,438
20230821,7522.00,441
20230822,7545.00,444
20230823,7617.00,449
20230824,7615.00,450
20230825,7590.00,449
20230828,7670.00,455
20230829,7709.00,458
20230830,7711.00,458
20230831,7741.00,460
20230901,7775.00,463
20230904,7815.00,465
20230905,7839.00,467
20230906,7838.00,468
20230907,7790.00,471
20230908,7701.00,465
20230911,7689.00,465
20230912,7732.00,469
20230913,7689.00,466
20230914,7700.00,467
20230915,7762.00,471
20230919,7718.00,469
20230920,7606.00,462
20230921,7518.00,458
20230922,7487.00,457
20230925,7561.00,462
20230926,7530.00,460
20230927,7583.00,465
20230928,7525.00,461
20230929,7485.00,460
20231002,7374.00,453
20231003,7218.00,443
20231004,7087.00,437
20231005,7210.00,446
20231006,7211.00,447
20231010,7318.00,454
20231011,7247.00,452
20231012,7330.00,458
20231013,7210.00,451
20231016,7074.00,443
20231017,7119.00,449
20231018,7103.00,449
20231019,7012.00,443
20231020,6955.00,440
20231023,6877.00,435
20231024,6919.00,438
20231025,6915.00,439
20231026,6850.00,435
20231027,6984.00,445
20231030,6961.00,448
20231031,7059.00,454
20231101,7134.00,460
20231102,7252.00,467
20231106,7373.00,478
20231107,7262.00,471
20231108,7245.00,470
20231109,7286.00,473
20231110,7311.00,474
20231113,7321.00,476
20231114,7360.00,479
20231115,7420.00,484
20231116,7342.00,484
20231117,7427.00,490
20231120,7427.00,491
20231121,7502.00,496
20231122,7504.00,497
20231124,7492.00,501
20231127,7427.00,497
20231128,7425.00,497
20231129,7422.00,497
20231130,7426.00,498
20231201,7427.00,498
20231204,7415.00,497
20231205,7349.00,493
20231206,7455.00,510
20231207,7352.00,504
20231208,7232.00,496
20231211,7313.00,499
20231212,7286.00,497
20231213,7271.00,496
20231214,7312.00,500
20231215,7362.00,504
20231218,7314.00,501
20231219,7370.00,506
20231220,7407.00,509
20231221,7371.00,509
20231222,7396.00,511
20231225,7381.00,511
20231226,7388.00,512
20231227,7519.00,521
20231228,7586.00,524
20231229,7604.00,528
20240104,7640.00,530
20240105,7574.00,528
20240109,7695.00,537
20240110,7768.00,542
20240111,7827.00,546
20240112,7840.00,548
20240115,7859.00,550
20240116,7733.00,542
20240117,7676.00,538
20240118,7626.00,536
20240119,7670.00,540
20240122,7772.00,547
20240123,7823.00,552
20240124,7771.00,548
20240125,7815.00,550
20240126,7720.00,545
20240129,7740.00,546
20240130,7704.00,544
20240131,7767.00,548
20240201,7770.00,550
20240202,7835.00,555
20240205,7865.00,557
20240206,7764.00,550
20240207,7724.00,549
20240208,7683.00,546
20240209,7700.00,544
20240213,7762.00,549
20240214,7624.00,539
20240215,7633.00,540
20240216,7739.00,549
20240219,7783.00,552
20240220,7760.00,550
20240221,7752.00,551
20240222,7786.00,553
20240226,7833.00,559
20240227,7908.00,566
20240228,7912.00,566
20240229,7890.00,565
20240301,7881.00,565
20240304,7842.00,567
20240305,7835.00,572
20240306,7875.00,570
20240307,7815.00,571
20240308,7856.00,576
20240311,7764.00,574
20240312,7787.00,576
20240313,7728.00,572
20240314,7766.00,576
20240315,7773.00,577
20240318,7897.00,586
20240319,7969.00,592
20240321,8078.00,603
20240322,8108.00,603
20240325,8023.00,599
20240326,8038.00,595
20240327,8079.00,600
20240328,7996.00,597
20240329,8127.00,608
